Погода в Кулум-Бич

Австралия     26°31′56″S   153°05′34″E
темп.,
°C
ветер,
м/с
пор.,
м/с
влажн.,
%
обл.,
%
осадки,
мм/ч
давл.,
гПа
погр.,
м
25 мая, ср
ср2501:00+17ююв398999 0.6 1020526
04:00+16ю299540 1.4 1019381
07:00+16ююв3109488 0.8 1020455
10:00+19юв499092 2.1 1020809
13:00+18ююв3994100 2.9 1018665
16:00+17ююв3991100 4.5 1017377
19:00+17ююв2693100 0.7 1018219
22:00+16ююв2897100 4.1 1019306
26 мая, чт
чт2601:00+15ю2696100 0.3 1018177
04:00+15ююз269610 0.3 1016182
07:00+14ююз279862 0.0 1018241
10:00+20ю367654 0.1 1018791
13:00+19ююв368827 1.9 1016750
16:00+18ююв269462 3.8 1016372
19:00+15ююз149820 0.5 1017105
22:00+14ююз249831 0.8 1017147
27 мая, пт
пт2701:00+14ююз259951 0.4 1017168
04:00+14ююз279871 0.8 1016234
07:00+14ююз279954 0.0 1017214
10:00+19ю377873 0.0 1017734
13:00+19ююв378580 0.9 1015821
16:00+19ю37872 1.5 1014644
19:00+15юз259822 0.1 1015137
22:00+14юз149836 0.1 1015107
28 мая, сб
сб2801:00+14юз249943 0.1 101494
04:00+13юз129923 0.1 101345
07:00+13зюз119710 0.0 101435
10:00+21юз12630 0.0 1014614
13:00+24ююв13471 0.0 10101838
16:00+21в01709 0.0 101049
19:00+17з1177100 0.0 101117
22:00+17з287522 0.0 1011227
29 мая, вс
вс2901:00+14зюз26831 0.0 1011127
04:00+14зюз211750 0.0 1010305
07:00+14зюз313700 0.0 1012457
10:00+19зюз49490 0.0 1012983
13:00+21зюз48384 0.0 10101410
16:00+18зюз385014 0.0 1010920
19:00+12з127099 0.0 101231
22:00+11з127592 0.0 101231